Weather reports worldwide

Advertisment
Lecce, Italy (16332): temperature & dewpoint: 20.03.2019 08:00:00 - 26.03.2019 08:00:00 (CET)Lecce, Italy (16332): wind speed: 20.03.2019 08:00:00 - 26.03.2019 08:00:00 (CET)Lecce, Italy (16332): wind direction: 20.03.2019 08:00:00 - 26.03.2019 08:00:00 (CET)Lecce, Italy (16332): reduced air pressure: 20.03.2019 08:00:00 - 26.03.2019 08:00:00 (CET)Lecce, Italy (16332): visibility: 20.03.2019 08:00:00 - 26.03.2019 08:00:00 (CET)
Date & Time tt [°C] td [°C] ff [km/h] ff [kn] dd ppp [hPa] vv [km]
26.03.2019 08:00:00 - - - - - - -
26.03.2019 07:00:00 10,0 9,7 0 0 N 1009,6 7
26.03.2019 06:00:00 9,0 8,0 0 0 N - 7
26.03.2019 05:00:00 8,0 8,0 0 0 N - 10
26.03.2019 04:00:00 8,0 7,5 0 0 N 1009,3 10
26.03.2019 03:00:00 8,0 8,0 0 0 N - 10
26.03.2019 02:00:00 8,0 8,0 0 0 N - 10
26.03.2019 01:00:00 10,0 9,7 0 0 N 1009,5 10
26.03.2019 00:00:00 11,0 10,0 5 3 SSE - 10
25.03.2019 23:00:00 11,0 10,0 5 3 SSE - 10
25.03.2019 22:00:00 10,4 10,1 4 2 S 1010,4 10
25.03.2019 21:00:00 12,0 11,0 0 0 N - 10
25.03.2019 20:00:00 13,0 11,0 9 5 S - 10
25.03.2019 19:00:00 14,6 7,4 9 5 S 1010,7 10
25.03.2019 18:00:00 17,0 6,0 9 5 SSW - 10
25.03.2019 17:00:00 19,0 6,0 15 8 SSW - 10
25.03.2019 16:00:00 20,2 5,4 21 11 SSW 1011,2 10
25.03.2019 15:00:00 20,0 6,0 18 10 SSW - 10
25.03.2019 14:00:00 20,0 7,0 16 9 SW - 10
25.03.2019 13:00:00 20,0 7,1 21 11 WSW 1013,8 10
25.03.2019 12:00:00 20,0 7,0 24 13 WSW - 10
25.03.2019 11:00:00 19,0 8,0 22 12 WSW - 10
25.03.2019 10:00:00 17,2 9,1 18 10 WSW 1015,7 10
25.03.2019 09:00:00 16,0 10,0 16 9 WSW - 10
25.03.2019 08:00:00 13,0 11,0 9 5 WSW - 10
25.03.2019 07:00:00 6,6 5,2 4 2 SSE 1016,8 10
25.03.2019 06:00:00 6,0 5,0 4 2 SE - 10
25.03.2019 05:00:00 5,0 5,0 4 2 SE - 10
25.03.2019 04:00:00 6,0 5,4 5 3 E 1017,1 10
25.03.2019 03:00:00 5,0 5,0 2 1 - - 10
25.03.2019 02:00:00 6,0 5,0 4 2 SE - 10
25.03.2019 01:00:00 6,0 5,4 2 1 N 1018,7 10
25.03.2019 00:00:00 7,0 7,0 5 3 E - 10
24.03.2019 23:00:00 8,0 7,0 2 1 - - 10
24.03.2019 22:00:00 7,8 7,0 4 2 N 1019,4 10
24.03.2019 21:00:00 9,0 8,0 4 2 ESE - 10
24.03.2019 20:00:00 10,0 7,0 5 3 - - 10
24.03.2019 19:00:00 13,0 7,2 5 3 N 1019,4 10
24.03.2019 18:00:00 15,0 7,0 8 4 N - 10
24.03.2019 17:00:00 17,0 8,0 16 9 N - 10
24.03.2019 16:00:00 17,8 8,4 18 10 N 1019,3 10
24.03.2019 15:00:00 18,0 8,0 18 10 N - 10
24.03.2019 14:00:00 18,0 8,0 21 11 N - 10
24.03.2019 13:00:00 18,2 9,6 21 11 N 1020,6 10
24.03.2019 12:00:00 18,0 10,0 21 11 N - 10
24.03.2019 11:00:00 18,0 10,0 21 11 N - 10
24.03.2019 10:00:00 17,0 10,4 24 13 N 1020,6 10
24.03.2019 09:00:00 16,0 10,0 18 10 N - 10
24.03.2019 08:00:00 14,0 10,0 15 8 N - 10
24.03.2019 07:00:00 11,0 8,7 13 7 NNW 1019,9 10
24.03.2019 06:00:00 10,0 8,0 11 6 N - 10
24.03.2019 05:00:00 10,0 7,0 9 5 N - 10
24.03.2019 04:00:00 10,2 7,3 13 7 N 1020,4 10
24.03.2019 03:00:00 11,0 8,0 15 8 NNW - 10
24.03.2019 02:00:00 10,0 8,0 11 6 NNW - 10
24.03.2019 01:00:00 9,4 7,8 4 2 N 1020,4 10
24.03.2019 00:00:00 10,0 9,0 5 3 - - 10
23.03.2019 23:00:00 10,0 9,0 4 2 - - 10
23.03.2019 22:00:00 11,0 9,9 8 4 NNW 1020,5 10
23.03.2019 21:00:00 11,0 9,0 5 3 NW - 10
23.03.2019 20:00:00 11,0 9,0 8 4 NNW - 10
23.03.2019 19:00:00 12,2 5,1 11 6 NW 1020,2 10
23.03.2019 18:00:00 14,0 9,0 15 8 NNW - 10
23.03.2019 17:00:00 16,0 9,0 22 12 N - 10
23.03.2019 16:00:00 16,8 8,5 21 11 N 1019,9 10
23.03.2019 15:00:00 17,0 7,0 24 13 N - 10
23.03.2019 14:00:00 18,0 7,0 24 13 N - 10
23.03.2019 13:00:00 18,0 8,8 22 12 N 1020,4 10
23.03.2019 12:00:00 17,0 10,0 21 11 N - 10
23.03.2019 11:00:00 17,0 10,0 21 11 N - 10
23.03.2019 10:00:00 16,2 11,2 21 11 N 1021,3 10
23.03.2019 09:00:00 15,0 11,0 18 10 N - 10
23.03.2019 08:00:00 13,0 11,0 15 8 NNW - 10
23.03.2019 07:00:00 10,8 9,7 18 10 NNW 1021,6 10
23.03.2019 06:00:00 10,0 9,0 15 8 NNW - 10
23.03.2019 05:00:00 10,0 9,0 16 9 N - 10
23.03.2019 04:00:00 10,4 9,3 15 8 N 1021,7 10
23.03.2019 03:00:00 11,0 10,0 16 9 N - 10
23.03.2019 02:00:00 11,0 10,0 15 8 NNW - 10
23.03.2019 01:00:00 10,4 9,2 16 9 NNW 1022,5 10
23.03.2019 00:00:00 11,0 10,0 16 9 NNW - 10
22.03.2019 23:00:00 11,0 10,0 15 8 N - 10
22.03.2019 22:00:00 11,8 9,7 15 8 NNW 1023,2 10
22.03.2019 21:00:00 12,0 11,0 13 7 NNW - 10
22.03.2019 20:00:00 12,0 11,0 15 8 N - 10
22.03.2019 19:00:00 12,6 10,1 15 8 NNW 1023,6 10
22.03.2019 18:00:00 14,0 9,0 16 9 N - 10
22.03.2019 17:00:00 15,0 9,0 24 13 N - 10
22.03.2019 16:00:00 16,0 9,9 26 14 N 1023,6 10
22.03.2019 15:00:00 17,0 8,0 26 14 NNW - 10
22.03.2019 14:00:00 17,0 8,0 24 13 N - 10
22.03.2019 13:00:00 17,0 8,4 21 11 N 1024,5 10
22.03.2019 12:00:00 18,0 8,0 15 8 NE - 10
22.03.2019 11:00:00 18,0 9,0 16 9 NNE - 10
22.03.2019 10:00:00 16,4 10,9 15 8 N 1025,3 10
22.03.2019 09:00:00 16,0 13,0 18 10 N - 10
22.03.2019 08:00:00 13,0 11,0 13 7 N - 7
22.03.2019 07:00:00 10,2 9,3 9 5 NNW 1025,2 6
22.03.2019 06:00:00 10,0 9,0 9 5 NNW - 6
22.03.2019 05:00:00 10,0 9,0 5 3 NNW - 10
22.03.2019 04:00:00 10,0 9,1 9 5 NNW 1024,7 10
22.03.2019 03:00:00 11,0 10,0 11 6 NNW - 10
22.03.2019 02:00:00 12,0 11,0 15 8 N - 10
22.03.2019 01:00:00 11,8 10,9 15 8 NNW 1024,6 10
22.03.2019 00:00:00 12,0 11,0 18 10 NNW - 10
21.03.2019 23:00:00 13,0 11,0 18 10 N - 10
21.03.2019 22:00:00 12,6 10,7 21 11 N 1024,4 10
21.03.2019 21:00:00 13,0 11,0 22 12 N - 10
21.03.2019 20:00:00 13,0 11,0 26 14 NNW - 10
21.03.2019 19:00:00 13,4 11,1 24 13 NNW 1023,3 10
21.03.2019 18:00:00 14,0 11,0 21 11 NNW - 10
21.03.2019 17:00:00 16,0 11,0 22 12 N - 10
21.03.2019 16:00:00 16,4 10,0 24 13 NNE 1022,9 10
21.03.2019 15:00:00 17,0 11,0 24 13 N - 10
21.03.2019 14:00:00 17,0 10,0 24 13 N - 10
21.03.2019 13:00:00 17,2 10,8 24 13 N 1023,7 10
21.03.2019 12:00:00 17,0 11,0 22 12 N - 10
21.03.2019 11:00:00 17,0 12,0 24 13 N - 10
21.03.2019 10:00:00 16,4 11,6 22 12 N 1024,1 10
21.03.2019 09:00:00 15,0 11,0 21 11 N - 10
21.03.2019 08:00:00 14,0 11,0 18 10 N - 10
21.03.2019 07:00:00 11,6 10,2 16 9 N 1023,4 10
21.03.2019 06:00:00 11,0 10,0 11 6 N - 7
21.03.2019 05:00:00 10,0 10,0 16 9 N - 10
21.03.2019 04:00:00 10,2 9,4 18 10 NNW 1023,2 10
21.03.2019 03:00:00 11,0 9,0 24 13 NNW - 10
21.03.2019 02:00:00 11,0 9,0 16 9 N - 10
21.03.2019 01:00:00 11,2 9,3 24 13 NNW 1023,4 10
21.03.2019 00:00:00 11,0 9,0 21 11 NNW - 10
20.03.2019 23:00:00 11,0 9,0 21 11 NNW - 10
20.03.2019 22:00:00 10,6 8,9 22 12 N 1023,2 10
20.03.2019 21:00:00 12,0 10,0 21 11 NNW - 10
20.03.2019 20:00:00 12,0 10,0 22 12 N - 10
20.03.2019 19:00:00 12,0 10,1 22 12 NNW 1022,6 10
20.03.2019 18:00:00 13,0 10,0 26 14 N - 10
20.03.2019 17:00:00 13,0 10,0 28 15 NNW - 10
20.03.2019 16:00:00 15,0 11,6 28 15 NNW 1021,4 10
20.03.2019 15:00:00 14,0 10,0 26 14 N - 10
20.03.2019 14:00:00 14,0 9,0 28 15 N - 10
20.03.2019 13:00:00 14,6 10,8 28 15 N 1021,3 10
20.03.2019 12:00:00 15,0 11,0 29 16 N - 10
20.03.2019 11:00:00 15,0 11,0 28 15 N - 10
20.03.2019 10:00:00 14,0 11,4 26 14 N 1021,7 10
20.03.2019 09:00:00 13,0 11,0 24 13 N - 10
20.03.2019 08:00:00 12,0 10,0 18 10 N - 10

tt = temperature
td = dewpoint
ff = wind speed
dd = wind direction
ppp = reduced air pressure
vv = visibility

Next stations